[[{"header":{"parameterUnit":"m.s-1","parameterCategory":1,"la1":30.2991,"la2":30.254,"lo1":-89.0895,"lo2":-89.0444,"dy":0.0017,"dx":0.0017,"nx":28,"ny":28,"refTime":"2025-07-12T03:00:00:Z","depth":0,"parameterNumber":2,"parameterNumberName":"U-component_of_WINDS"},"data":[0,0,0,0,0,0,0,0,0,0,0,0,0,0,0,0,0,0,0,0,0,0,0,0,0,0,0,0,0,0,0,0,0,0,0,0,0,0,0,0,0,0,0,0,0,0,0,0,0,0,0,0,0,0,0,0,0,0,3.0073,3.0074,0,3.0125,3.0126,3.0126,3.008,3.0078,3.0076,3.0075,3.0129,3.0132,3.0135,0,0,0,0,0,0,0,0,0,0,0,0,0,2.9932,2.9935,3.0073,3.0074,3.0075,3.0125,3.0126,3.0127,3.0081,3.0078,3.0076,3.0074,3.0128,3.0131,3.0135,0,0,0,0,0,0,0,0,0,0,0,0,0,2.999,2.9936,3.0073,3.0058,3.0057,3.0125,3.0126,3.0127,3.0081,3.0078,3.0075,3.0073,3.0126,3.0131,3.0136,3.0222,0,0,3.015,3.0153,0,0,0,0,0,0,0,0,2.9987,2.9995,3.0059,3.0059,3.0058,3.0093,3.0096,3.0159,3.0082,3.0072,3.0075,3.0071,3.0119,3.0124,3.014,3.0225,3.0227,3.0151,3.0154,3.0156,3.0157,0,0,0,0,0,0,0,2.9983,2.9993,3.0094,3.006,3.006,3.0048,3.0053,3.0108,3.0111,3.0073,3.0069,3.0076,3.0118,3.0136,3.0141,3.0228,3.0151,3.0155,3.0158,3.016,3.038,3.0383,0,0,0,0,0,0,2.9981,2.999,3.0092,3.0095,3.0015,3.0052,3.0058,3.0085,3.011,3.0111,3.0078,3.0074,3.0129,3.0136,3.0143,3.0242,3.0156,3.016,3.0163,3.0377,3.0381,3.0384,0,0,0,0,0,0,2.9978,2.999,3.009,3.0042,3.0053,3.0058,3.0088,3.0087,3.0105,3.0115,3.0115,3.0096,3.0127,3.0136,3.0202,3.0243,3.0162,3.0167,3.0374,3.0378,3.0383,3.0443,0,0,0,0,0,0,2.9974,2.999,3.0023,3.0043,3.0056,3.0149,3.0091,3.0091,3.0113,3.0108,3.0131,3.0132,3.0126,3.0195,3.0206,3.0248,3.0171,3.037,3.0376,3.0381,3.0437,3.0449,3.0459,0,0,0,0,0,2.9969,3.0039,3.0025,3.0038,3.0098,3.0151,3.0159,3.015,3.0117,3.015,3.0155,3.0131,3.0238,3.0202,3.0215,3.0259,3.0367,3.0374,3.0381,3.0432,3.0447,3.0459,0,0,0,0,0,0,3.0026,3.0042,3.0026,3.0105,3.0127,3.0143,3.0185,3.0166,3.0198,3.0191,3.0179,3.0184,3.0252,3.0263,3.0223,3.0341,3.0297,3.0307,3.0332,3.0345,3.0356,3.0351,3.0175,0,0,0,0,0,3.0047,3.0089,3.0101,3.0169,3.0181,3.0181,3.0204,3.0194,3.0217,3.0226,3.0236,3.0259,3.0297,3.0322,3.0358,3.0439,3.0441,3.0476,3.0486,3.0495,3.0503,3.0542,3.0556,3.0406,3.0406,3.0406,0,0,3.0092,3.0106,3.0133,3.018,3.0196,3.0238,3.0189,3.0237,3.0267,3.0233,3.0294,3.0303,3.0327,3.0399,3.0432,3.041,3.0545,3.0504,3.0511,3.0514,3.055,3.0564,3.0577,3.0411,3.041,3.0409,0,0,3.0195,3.0211,3.0267,3.0283,3.0307,3.0307,3.032,3.0339,3.0343,3.0404,3.0378,3.0414,3.0481,3.0497,3.0515,3.062,3.0598,3.0633,3.0688,3.0727,3.0738,3.0749,3.0783,3.0795,3.0641,3.0641,3.0641,0,3.0247,3.031,3.0299,3.0347,3.0367,3.0337,3.0392,3.0409,3.0444,3.0458,3.0433,3.0513,3.0528,3.0601,3.0626,3.0643,3.0656,3.0629,3.0738,3.0748,3.0757,3.0789,3.0803,3.0645,3.0644,3.0644,3.0643,0,3.0371,3.0415,3.0458,3.049,3.0515,3.0567,3.0562,3.0589,3.0577,3.0578,3.0639,3.0655,3.0691,3.0709,3.0699,3.078,3.0765,3.074,3.0694,3.0776,3.0805,3.0818,3.065,3.0649,3.0647,3.0646,0,0,3.0512,3.0534,3.055,3.0562,3.0585,3.0618,3.0668,3.0702,3.0724,3.0749,3.0788,3.0843,3.0818,3.0838,3.0829,3.0864,3.0941,3.0833,3.0833,3.0849,3.1027,3.1043,3.1058,3.0927,3.093,3.0931,3.1023,0,3.0612,3.0696,3.0686,3.0767,3.0805,3.0776,3.0818,3.0836,3.0838,3.087,3.0873,3.0911,3.0877,3.0888,3.0921,3.0925,3.0976,3.0918,3.0961,3.0963,3.0953,3.1074,3.1093,3.1179,3.1035,3.1037,3.1039,0,3.074,3.0767,3.085,3.0863,3.0879,3.0918,3.0946,3.0978,3.0997,3.0996,3.1016,3.1001,3.1048,3.1004,3.1067,3.1028,3.1045,3.105,3.1053,3.1054,3.1004,3.1075,3.1206,3.1218,3.1058,3.1056,3.1055,0,3.0828,3.0886,3.0942,3.0954,3.0972,3.0999,3.1008,3.1024,3.1044,3.1069,3.1081,3.1113,3.1129,3.1153,3.1146,3.1115,3.121,3.1166,3.1208,3.1208,3.1227,3.1225,3.1359,3.1244,3.1244,3.1244,3.1243,0,3.0939,3.0991,3.0981,3.1016,3.1071,3.1059,3.1114,3.112,3.1134,3.1167,3.1145,3.1177,3.1167,3.1198,3.1193,3.1244,3.1253,3.1252,3.1249,3.1252,3.1251,3.1261,3.1253,3.1247,3.1246,3.1246,3.1245,0,3.1047,3.1043,3.1101,3.1113,3.1116,3.1157,3.1166,3.1197,3.1197,3.124,3.1249,3.1249,3.1284,3.1279,3.1319,3.1315,3.1378,3.137,3.1371,3.1368,3.1409,3.1404,3.1551,3.1568,3.1445,3.1446,3.1447,0,3.1116,3.1154,3.1169,3.1189,3.1199,3.1233,3.1252,3.1241,3.1262,3.1285,3.1313,3.1346,3.1371,3.1428,3.1431,3.1461,3.1451,3.15,3.1455,3.1455,3.1447,3.1443,3.1445,3.1508,3.151,3.1511,3.1512,0,3.1238,3.1233,3.1262,3.1289,3.1313,3.1334,3.1353,3.1371,3.1361,3.1386,3.1421,3.144,3.1479,3.1511,3.1538,3.1546,3.1527,3.1526,3.1537,3.1538,3.1536,3.1534,3.1391,3.1522,3.1521,3.1521,3.152,3.152,3.1326,3.1357,3.1371,3.1402,3.1415,3.1432,3.1461,3.1463,3.1492,3.1522,3.1514,3.1552,3.1567,3.1601,3.1612,3.1641,3.1623,3.164,3.1643,3.1646,3.1649,3.1534,3.1647,3.1646,3.1646,3.1646,3.1646,0,3.1443,3.145,3.1479,3.1505,3.1529,3.1509,3.1528,3.1549,3.1583,3.1598,3.1623,3.1661,3.1691,3.1696,3.1724,3.1746,3.1737,3.1753,3.175,3.1751,3.1666,3.1652,3.1759,3.1759,3.1759,3.1759,3.1759,3.1759,3.1507,3.1557,3.1553,3.1608,3.1615,3.1651,3.1663,3.1678,3.169,3.1733,3.1757,3.176,3.177,3.1798,3.1824,3.1824,3.1834,3.1853,3.1849,3.1769,3.1758,3.1747,3.1733,3.1856,3.1856,3.1932,3.1932,3.1933]},{"header":{"parameterUnit":"m.s-1","parameterCategory":1,"la1":30.2991,"la2":30.254,"lo1":-89.0895,"lo2":-89.0444,"dy":0.0017,"dx":0.0017,"nx":28,"ny":28,"refTime":"2025-07-12T03:00:00:Z","depth":0,"parameterNumber":3,"parameterNumberName":"V-component_of_WINDS"},"data":[0,0,0,0,0,0,0,0,0,0,0,0,0,0,0,0,0,0,0,0,0,0,0,0,0,0,0,0,0,0,0,0,0,0,0,0,0,0,0,0,0,0,0,0,0,0,0,0,0,0,0,0,0,0,0,0,0,0,3.4614,3.4615,0,3.4744,3.4746,3.4747,3.4739,3.4738,3.4736,3.4734,3.4862,3.4867,3.4872,0,0,0,0,0,0,0,0,0,0,0,0,0,3.4352,3.4357,3.4614,3.4615,3.4617,3.4744,3.4746,3.4748,3.474,3.4737,3.4735,3.4733,3.486,3.4867,3.4873,0,0,0,0,0,0,0,0,0,0,0,0,0,3.4472,3.4358,3.4613,3.4629,3.4631,3.4744,3.4746,3.4748,3.474,3.4737,3.4735,3.4732,3.4858,3.4866,3.4874,3.4978,0,0,3.4897,3.4901,0,0,0,0,0,0,0,0,3.4465,3.4482,3.4625,3.4628,3.4631,3.4723,3.47,3.4825,3.4741,3.4699,3.4734,3.4731,3.4818,3.4829,3.4859,3.4984,3.499,3.4898,3.4903,3.4906,3.4908,0,0,0,0,0,0,0,3.4457,3.4476,3.4665,3.4627,3.4631,3.4627,3.4641,3.4724,3.4772,3.4702,3.4702,3.4718,3.4819,3.4852,3.4862,3.4991,3.4898,3.4905,3.491,3.4913,3.5205,3.5208,0,0,0,0,0,0,3.4446,3.4469,3.4661,3.4669,3.454,3.4634,3.4649,3.4696,3.4771,3.478,3.472,3.4717,3.484,3.4853,3.4867,3.4992,3.4906,3.4913,3.4918,3.5202,3.5206,3.521,0,0,0,0,0,0,3.444,3.4463,3.4656,3.4569,3.4593,3.4641,3.4694,3.47,3.4733,3.4785,3.4793,3.4745,3.4838,3.4856,3.495,3.4996,3.4917,3.4924,3.5199,3.5204,3.5208,3.5245,0,0,0,0,0,0,3.4433,3.4461,3.4503,3.457,3.4598,3.4739,3.4697,3.4705,3.4747,3.4744,3.4811,3.4819,3.4837,3.4939,3.4958,3.5006,3.493,3.5195,3.5201,3.5206,3.524,3.525,3.5259,0,0,0,0,0,3.4424,3.4508,3.4505,3.4529,3.4652,3.4742,3.4758,3.4779,3.4751,3.4792,3.4825,3.4817,3.4988,3.4948,3.497,3.5021,3.5192,3.5199,3.5206,3.5235,3.5248,3.5259,0,0,0,0,0,0,3.4444,3.4517,3.4515,3.4624,3.4677,3.4741,3.4793,3.4792,3.4853,3.4848,3.4869,3.4884,3.4979,3.5009,3.4963,3.5124,3.5086,3.5098,3.5101,3.5114,3.5123,3.5113,3.4936,0,0,0,0,0,3.4461,3.453,3.459,3.468,3.4707,3.4745,3.4786,3.4797,3.4852,3.4874,3.4914,3.4967,3.5032,3.5075,3.5138,3.5244,3.5257,3.5289,3.5299,3.5307,3.5316,3.5372,3.5387,3.5233,3.5233,3.5232,0,0,3.4497,3.4545,3.4588,3.4685,3.4727,3.4796,3.4764,3.4839,3.489,3.4885,3.4977,3.5008,3.5067,3.5168,3.5214,3.5196,3.5362,3.5316,3.5322,3.5327,3.5381,3.5396,3.5409,3.5237,3.5237,3.5236,0,0,3.4597,3.4642,3.4721,3.4764,3.483,3.4855,3.4873,3.4938,3.4958,3.5051,3.5048,3.5107,3.5221,3.5263,3.5299,3.5413,3.5407,3.5433,3.5484,3.5538,3.555,3.5561,3.56,3.5614,3.5442,3.5443,3.5443,0,3.4633,3.4739,3.4762,3.4837,3.4878,3.4879,3.4957,3.4998,3.5079,3.5107,3.5086,3.5227,3.5267,3.5376,3.5404,3.5434,3.5454,3.5425,3.5547,3.5558,3.5568,3.5606,3.5621,3.5445,3.5445,3.5445,3.5444,0,3.4779,3.4852,3.4908,3.4988,3.5036,3.5113,3.5144,3.519,3.5197,3.5223,3.5316,3.5364,3.5436,3.5463,3.547,3.5572,3.5559,3.5543,3.5504,3.5585,3.5621,3.5635,3.5449,3.5448,3.5447,3.5447,0,0,3.4896,3.4987,3.5007,3.5043,3.5114,3.517,3.5245,3.5317,3.5354,3.541,3.5472,3.5567,3.5552,3.5593,3.5604,3.5652,3.5737,3.563,3.5631,3.5646,3.585,3.5861,3.5878,3.5734,3.5737,3.5739,3.5845,0,3.5003,3.5139,3.516,3.5278,3.5344,3.5345,3.541,3.5459,3.5485,3.5544,3.5572,3.5638,3.5614,3.5638,3.5686,3.5717,3.5778,3.571,3.5789,3.5792,3.5774,3.5897,3.5909,3.6007,3.5859,3.5861,3.5863,0,3.5146,3.5206,3.5332,3.5392,3.5421,3.5479,3.5545,3.5602,3.5657,3.5672,3.5718,3.5723,3.5798,3.5758,3.586,3.5813,3.5847,3.5867,3.5871,3.5878,3.5832,3.5906,3.6038,3.6052,3.5885,3.5884,3.5882,0,3.5216,3.5329,3.5418,3.5449,3.5522,3.5563,3.5595,3.5647,3.5688,3.5745,3.5772,3.5837,3.5872,3.5921,3.5943,3.5911,3.6043,3.6005,3.6056,3.6055,3.6083,3.6081,3.6222,3.6107,3.6107,3.6107,3.6106,0,3.5333,3.5409,3.5451,3.5505,3.559,3.5612,3.5695,3.5725,3.5771,3.583,3.5834,3.5888,3.5914,3.5972,3.5989,3.607,3.6086,3.6099,3.6103,3.6098,3.6097,3.612,3.6113,3.6111,3.611,3.6109,3.6108,0,3.5426,3.5457,3.5554,3.5615,3.5632,3.5692,3.5743,3.5795,3.582,3.5894,3.5913,3.5952,3.602,3.6047,3.613,3.6141,3.6234,3.6233,3.6216,3.6217,3.6266,3.6261,3.6426,3.6448,3.632,3.6321,3.6322,0,3.5497,3.5556,3.5623,3.5664,3.5697,3.5762,3.5804,3.5828,3.5871,3.5937,3.598,3.6049,3.6104,3.6213,3.6247,3.631,3.6309,3.6363,3.6318,3.6312,3.6308,3.6304,3.6309,3.637,3.6372,3.6373,3.6374,0,3.562,3.5632,3.5694,3.5761,3.5811,3.5864,3.5916,3.5948,3.5979,3.6027,3.6098,3.6141,3.6226,3.6293,3.6357,3.6387,3.6385,3.6388,3.6402,3.6398,3.6385,3.6391,3.6237,3.6383,3.6382,3.6382,3.6381,3.6381,3.5703,3.5755,3.581,3.5878,3.5919,3.5967,3.6018,3.605,3.611,3.6182,3.6192,3.6266,3.6317,3.6404,3.6437,3.6494,3.648,3.6502,3.6507,3.6512,3.6514,3.6377,3.6506,3.6506,3.6505,3.6505,3.6505,0,3.5825,3.586,3.5923,3.5995,3.6048,3.6043,3.6099,3.6143,3.6209,3.6258,3.6313,3.6392,3.6457,3.6496,3.656,3.6598,3.6598,3.6614,3.6611,3.6617,3.6524,3.6504,3.6612,3.6612,3.6612,3.6612,3.6612,3.6612,3.5894,3.598,3.5999,3.6104,3.6139,3.6213,3.6246,3.6289,3.6328,3.6417,3.6471,3.6497,3.6541,3.6608,3.6666,3.6676,3.6698,3.6715,3.6723,3.6635,3.6624,3.6613,3.6595,3.672,3.672,3.6811,3.6812,3.6812]}]]